| time (UTC) | temp F | wind direction | speed MPH | gust MPH | rain 1hr in | rain 24hr in | rain mn in | humidity % | barometer mb |
| 20260504040647 | 67 | 185 | 1.0 | 1.0 | 0.00 | 0.00 | 0.00 | 63 | 1019.7 |
| 20260504040144 | 67 | 203 | 2.0 | 2.0 | 0.00 | 0.00 | 0.00 | 62 | 1019.3 |
| 20260504035641 | 67 | 182 | 3.0 | 3.0 | 0.00 | 0.00 | 0.00 | 62 | 1019.3 |
| 20260504035138 | 68 | 148 | 3.0 | 3.0 | 0.00 | 0.00 | 0.00 | 61 | 1019.3 |
| 20260504034635 | 68 | 97 | 2.0 | 3.0 | 0.00 | 0.00 | 0.00 | 61 | 1019.3 |
| 20260504034132 | 68 | 170 | 1.0 | 2.0 | 0.00 | 0.00 | 0.00 | 60 | 1019.3 |
| 20260504033630 | 67 | 182 | 1.0 | 3.0 | 0.00 | 0.00 | 0.00 | 60 | 1018.9 |
| 20260504033127 | 66 | 177 | 1.0 | 2.0 | 0.00 | 0.00 | 0.00 | 61 | 1019.3 |
| 20260504032624 | 66 | 137 | 1.0 | 1.0 | 0.00 | 0.00 | 0.00 | 61 | 1019.3 |
| 20260504032120 | 66 | 215 | 0.0 | 0.0 | 0.00 | 0.00 | 0.00 | 61 | 1019.3 |
| 20260504031618 | 66 | 238 | 0.0 | 1.0 | 0.00 | 0.00 | 0.00 | 62 | 1019.3 |
| 20260504031114 | 66 | 249 | 0.0 | 0.0 | 0.00 | 0.00 | 0.00 | 61 | 1019.3 |
| 20260504030611 | 66 | 211 | 0.0 | 0.0 | 0.00 | 0.00 | 0.00 | 61 | 1019.3 |
| 20260504030108 | 66 | 229 | 0.0 | 0.0 | 0.00 | 0.00 | 0.00 | 61 | 1018.9 |
| 20260504025604 | 67 | 239 | 0.0 | 0.0 | 0.00 | 0.00 | 0.00 | 61 | 1018.9 |
| 20260504025101 | 67 | 243 | 0.0 | 0.0 | 0.00 | 0.00 | 0.00 | 60 | 1018.9 |
| 20260504024559 | 67 | 243 | 0.0 | 0.0 | 0.00 | 0.00 | 0.00 | 60 | 1018.9 |
| 20260504024055 | 67 | 222 | 0.0 | 1.0 | 0.00 | 0.00 | 0.00 | 60 | 1018.9 |
| 20260504023552 | 67 | 233 | 0.0 | 1.0 | 0.00 | 0.00 | 0.00 | 59 | 1018.9 |
| 20260504023048 | 68 | 247 | 0.0 | 1.0 | 0.00 | 0.00 | 0.00 | 60 | 1018.9 |
| 20260504022544 | 67 | 244 | 0.0 | 1.0 | 0.00 | 0.00 | 0.00 | 59 | 1018.9 |
| 20260504022040 | 68 | 246 | 0.0 | 0.0 | 0.00 | 0.00 | 0.00 | 59 | 1019.3 |
| 20260504021538 | 68 | 237 | 0.0 | 0.0 | 0.00 | 0.00 | 0.00 | 58 | 1018.9 |
| 20260504021034 | 69 | 237 | 0.0 | 0.0 | 0.00 | 0.00 | 0.00 | 56 | 1018.9 |
| 20260504020531 | 69 | 236 | 0.0 | 0.0 | 0.00 | 0.00 | 0.00 | 56 | 1018.9 |
| 20260504020028 | 69 | 241 | 0.0 | 0.0 | 0.00 | 0.00 | 0.00 | 55 | 1018.9 |
| 20260504015524 | 69 | 256 | 0.0 | 0.0 | 0.00 | 0.00 | 0.00 | 55 | 1018.5 |
| 20260504015020 | 70 | 248 | 0.0 | 0.0 | 0.00 | 0.00 | 0.00 | 54 | 1018.5 |
| 20260504014517 | 70 | 235 | 0.0 | 0.0 | 0.00 | 0.00 | 0.00 | 54 | 1018.2 |
| 20260504014014 | 71 | 234 | 0.0 | 0.0 | 0.00 | 0.00 | 0.00 | 53 | 1018.5 |
| 20260504013512 | 71 | 228 | 0.0 | 0.0 | 0.00 | 0.00 | 0.00 | 52 | 1018.2 |
| 20260504013009 | 71 | 215 | 1.0 | 1.0 | 0.00 | 0.00 | 0.00 | 51 | 1018.2 |
| 20260504012506 | 71 | 239 | 0.0 | 0.0 | 0.00 | 0.00 | 0.00 | 51 | 1018.2 |
| 20260504012004 | 72 | 236 | 0.0 | 0.0 | 0.00 | 0.00 | 0.00 | 50 | 1018.2 |
| 20260504011500 | 72 | 224 | 0.0 | 0.0 | 0.00 | 0.00 | 0.00 | 50 | 1018.5 |
| 20260504010955 | 73 | 227 | 0.0 | 0.0 | 0.00 | 0.00 | 0.00 | 50 | 1018.2 |
| 20260504010452 | 74 | 210 | 0.0 | 1.0 | 0.00 | 0.00 | 0.00 | 47 | 1018.2 |
| 20260504005948 | 74 | 185 | 1.0 | 2.0 | 0.00 | 0.00 | 0.00 | 46 | 1018.2 |
| 20260504005445 | 74 | 209 | 2.0 | 2.0 | 0.00 | 0.00 | 0.00 | 45 | 1018.2 |
| 20260504004943 | 75 | 203 | 1.0 | 2.0 | 0.00 | 0.00 | 0.00 | 45 | 1018.2 |
| 20260504004440 | 75 | 197 | 1.0 | 2.0 | 0.00 | 0.00 | 0.00 | 45 | 1017.9 |
| 20260504003937 | 75 | 249 | 1.0 | 1.0 | 0.00 | 0.00 | 0.00 | 44 | 1018.2 |
| 20260504003433 | 75 | 248 | 1.0 | 2.0 | 0.00 | 0.00 | 0.00 | 43 | 1018.2 |
| 20260504002930 | 76 | 170 | 3.0 | 3.0 | 0.00 | 0.00 | 0.00 | 42 | 1018.5 |
| 20260504002427 | 76 | 205 | 3.0 | 3.0 | 0.00 | 0.00 | 0.00 | 43 | 1018.5 |
| 20260504001924 | 76 | 191 | 3.0 | 3.0 | 0.00 | 0.00 | 0.00 | 42 | 1018.5 |
| 20260504001422 | 76 | 176 | 4.0 | 5.0 | 0.00 | 0.00 | 0.00 | 41 | 1018.5 |
| 20260504000918 | 76 | 195 | 2.0 | 2.0 | 0.00 | 0.00 | 0.00 | 41 | 1018.9 |
| 20260504000416 | 77 | 195 | 3.0 | 5.0 | 0.00 | 0.00 | 0.00 | 41 | 1018.5 |
| 20260503235913 | 77 | 198 | 2.0 | 3.0 | 0.00 | 0.00 | 0.00 | 40 | 1018.9 |
| 20260503235410 | 77 | 287 | 2.0 | 2.0 | 0.00 | 0.00 | 0.00 | 39 | 1018.9 |
| 20260503234908 | 78 | 213 | 4.0 | 5.0 | 0.00 | 0.00 | 0.00 | 38 | 1018.9 |
| 20260503234405 | 78 | 186 | 2.0 | 2.0 | 0.00 | 0.00 | 0.00 | 39 | 1019.3 |
| 20260503233903 | 78 | 151 | 0.0 | 1.0 | 0.00 | 0.00 | 0.00 | 40 | 1018.9 |
| 20260503233359 | 77 | 204 | 2.0 | 2.0 | 0.00 | 0.00 | 0.00 | 41 | 1018.9 |
| 20260503232855 | 77 | 231 | 1.0 | 2.0 | 0.00 | 0.00 | 0.00 | 41 | 1018.9 |
| 20260503232353 | 78 | 228 | 1.0 | 1.0 | 0.00 | 0.00 | 0.00 | 41 | 1018.9 |
| 20260503231850 | 78 | 156 | 2.0 | 2.0 | 0.00 | 0.00 | 0.00 | 40 | 1018.9 |
| 20260503231347 | 78 | 236 | 3.0 | 5.0 | 0.00 | 0.00 | 0.00 | 40 | 1018.9 |
| 20260503230843 | 78 | 240 | 2.0 | 2.0 | 0.00 | 0.00 | 0.00 | 41 | 1018.9 |
| 20260503230340 | 78 | 208 | 2.0 | 3.0 | 0.00 | 0.00 | 0.00 | 40 | 1018.9 |
| 20260503225838 | 78 | 201 | 6.0 | 7.0 | 0.00 | 0.00 | 0.00 | 39 | 1018.9 |
| 20260503225334 | 79 | 224 | 2.0 | 2.0 | 0.00 | 0.00 | 0.00 | 40 | 1018.9 |
| 20260503224830 | 79 | 177 | 3.0 | 3.0 | 0.00 | 0.00 | 0.00 | 39 | 1018.9 |
| 20260503224328 | 79 | 254 | 3.0 | 3.0 | 0.00 | 0.00 | 0.00 | 37 | 1018.9 |
| 20260503223825 | 80 | 196 | 1.0 | 2.0 | 0.00 | 0.00 | 0.00 | 39 | 1018.9 |
| 20260503223323 | 80 | 249 | 1.0 | 1.0 | 0.00 | 0.00 | 0.00 | 37 | 1019.3 |
| 20260503222818 | 80 | 134 | 3.0 | 5.0 | 0.00 | 0.00 | 0.00 | 38 | 1019.3 |
| 20260503222317 | 81 | 230 | 1.0 | 1.0 | 0.00 | 0.00 | 0.00 | 39 | 1019.3 |
| 20260503221815 | 81 | 135 | 1.0 | 2.0 | 0.00 | 0.00 | 0.00 | 37 | 1019.7 |
| 20260503221313 | 80 | 170 | 4.0 | 6.0 | 0.00 | 0.00 | 0.00 | 37 | 1019.7 |
| 20260503220809 | 81 | 210 | 7.0 | 9.0 | 0.00 | 0.00 | 0.00 | 37 | 1020.0 |
| 20260503220306 | 80 | 227 | 1.0 | 2.0 | 0.00 | 0.00 | 0.00 | 36 | 1019.7 |
| 20260503215802 | 80 | 254 | 2.0 | 2.0 | 0.00 | 0.00 | 0.00 | 36 | 1019.7 |
| 20260503215259 | 80 | 189 | 2.0 | 3.0 | 0.00 | 0.00 | 0.00 | 37 | 1019.7 |
| 20260503214757 | 80 | 215 | 3.0 | 3.0 | 0.00 | 0.00 | 0.00 | 37 | 1020.0 |
| 20260503214254 | 81 | 234 | 2.0 | 2.0 | 0.00 | 0.00 | 0.00 | 37 | 1020.0 |
| 20260503213752 | 80 | 239 | 1.0 | 2.0 | 0.00 | 0.00 | 0.00 | 37 | 1020.0 |
| 20260503213249 | 80 | 270 | 4.0 | 5.0 | 0.00 | 0.00 | 0.00 | 36 | 1020.3 |
| 20260503212746 | 80 | 141 | 4.0 | 6.0 | 0.00 | 0.00 | 0.00 | 37 | 1020.3 |
| 20260503212244 | 80 | 200 | 3.0 | 3.0 | 0.00 | 0.00 | 0.00 | 36 | 1020.3 |
| 20260503211741 | 80 | 115 | 3.0 | 6.0 | 0.00 | 0.00 | 0.00 | 35 | 1020.7 |
| 20260503211237 | 81 | 141 | 3.0 | 5.0 | 0.00 | 0.00 | 0.00 | 34 | 1020.7 |
| 20260503210732 | 81 | 190 | 4.0 | 6.0 | 0.00 | 0.00 | 0.00 | 34 | 1020.7 |
| 20260503210230 | 80 | 150 | 2.0 | 2.0 | 0.00 | 0.00 | 0.00 | 34 | 1021.0 |
| 20260503205726 | 80 | 196 | 4.0 | 5.0 | 0.00 | 0.00 | 0.00 | 36 | 1021.0 |
| 20260503205222 | 80 | 176 | 4.0 | 6.0 | 0.00 | 0.00 | 0.00 | 34 | 1020.7 |
| 20260503204718 | 81 | 216 | 3.0 | 5.0 | 0.00 | 0.00 | 0.00 | 34 | 1020.7 |
| 20260503204216 | 80 | 158 | 6.0 | 7.0 | 0.00 | 0.00 | 0.00 | 35 | 1021.0 |
| 20260503203713 | 80 | 193 | 3.0 | 5.0 | 0.00 | 0.00 | 0.00 | 36 | 1021.4 |
| 20260503203211 | 81 | 187 | 3.0 | 5.0 | 0.00 | 0.00 | 0.00 | 34 | 1021.4 |
| 20260503202708 | 80 | 201 | 2.0 | 3.0 | 0.00 | 0.00 | 0.00 | 36 | 1021.4 |
| 20260503202206 | 80 | 141 | 5.0 | 7.0 | 0.00 | 0.00 | 0.00 | 35 | 1021.4 |
| 20260503201703 | 80 | 185 | 3.0 | 6.0 | 0.00 | 0.00 | 0.00 | 34 | 1021.7 |
| 20260503201201 | 81 | 84 | 4.0 | 6.0 | 0.00 | 0.00 | 0.00 | 34 | 1021.4 |
| 20260503200657 | 80 | 141 | 7.0 | 10.0 | 0.00 | 0.00 | 0.00 | 35 | 1021.7 |
| 20260503200153 | 80 | 127 | 3.0 | 5.0 | 0.00 | 0.00 | 0.00 | 36 | 1021.7 |
| 20260503195650 | 81 | 211 | 4.0 | 7.0 | 0.00 | 0.00 | 0.00 | 35 | 1021.7 |
| 20260503195147 | 80 | 171 | 1.0 | 2.0 | 0.00 | 0.00 | 0.00 | 37 | 1022.0 |
| 20260503194644 | 80 | 210 | 3.0 | 7.0 | 0.00 | 0.00 | 0.00 | 35 | 1022.0 |
| 20260503194139 | 80 | 121 | 4.0 | 6.0 | 0.00 | 0.00 | 0.00 | 37 | 1021.7 |
| 20260503193637 | 80 | 209 | 5.0 | 7.0 | 0.00 | 0.00 | 0.00 | 36 | 1022.0 |
| 20260503193132 | 80 | 195 | 2.0 | 3.0 | 0.00 | 0.00 | 0.00 | 36 | 1022.4 |
| 20260503192628 | 80 | 221 | 4.0 | 6.0 | 0.00 | 0.00 | 0.00 | 36 | 1022.0 |
| 20260503192124 | 79 | 195 | 3.0 | 5.0 | 0.00 | 0.00 | 0.00 | 38 | 1022.0 |
| 20260503191621 | 80 | 254 | 6.0 | 8.0 | 0.00 | 0.00 | 0.00 | 37 | 1022.0 |
| 20260503191118 | 80 | 116 | 5.0 | 7.0 | 0.00 | 0.00 | 0.00 | 35 | 1022.4 |
| 20260503190615 | 81 | 229 | 3.0 | 5.0 | 0.00 | 0.00 | 0.00 | 35 | 1022.4 |
| 20260503190112 | 80 | 289 | 1.0 | 2.0 | 0.00 | 0.00 | 0.00 | 39 | 1022.7 |
| 20260503185608 | 81 | 203 | 1.0 | 2.0 | 0.00 | 0.00 | 0.00 | 38 | 1022.4 |
| 20260503185108 | 79 | 193 | 4.0 | 5.0 | 0.00 | 0.00 | 0.00 | 37 | 1022.7 |
| 20260503184604 | 80 | 115 | 3.0 | 5.0 | 0.00 | 0.00 | 0.00 | 37 | 1022.7 |
| 20260503184101 | 78 | 146 | 4.0 | 6.0 | 0.00 | 0.00 | 0.00 | 37 | 1022.7 |
| 20260503183557 | 79 | 112 | 6.0 | 7.0 | 0.00 | 0.00 | 0.00 | 38 | 1023.1 |
| 20260503183055 | 80 | 240 | 3.0 | 7.0 | 0.00 | 0.00 | 0.00 | 37 | 1023.1 |
| 20260503182553 | 79 | 171 | 0.0 | 1.0 | 0.00 | 0.00 | 0.00 | 39 | 1023.1 |
| 20260503182050 | 79 | 228 | 2.0 | 3.0 | 0.00 | 0.00 | 0.00 | 37 | 1023.4 |
| 20260503181547 | 79 | 238 | 6.0 | 8.0 | 0.00 | 0.00 | 0.00 | 35 | 1023.4 |
| 20260503181044 | 78 | 151 | 4.0 | 5.0 | 0.00 | 0.00 | 0.00 | 37 | 1023.4 |
| 20260503180541 | 79 | 42 | 6.0 | 7.0 | 0.00 | 0.00 | 0.00 | 35 | 1023.4 |
| 20260503180038 | 80 | 207 | 4.0 | 6.0 | 0.00 | 0.00 | 0.00 | 37 | 1023.4 |
| 20260503175535 | 80 | 171 | 2.0 | 3.0 | 0.00 | 0.00 | 0.00 | 37 | 1023.4 |
| 20260503175033 | 79 | 212 | 3.0 | 3.0 | 0.00 | 0.00 | 0.00 | 38 | 1024.1 |
| 20260503174530 | 79 | 286 | 1.0 | 2.0 | 0.00 | 0.00 | 0.00 | 39 | 1023.7 |
| 20260503174026 | 79 | 212 | 4.0 | 6.0 | 0.00 | 0.00 | 0.00 | 37 | 1024.1 |
| 20260503173521 | 79 | 160 | 7.0 | 9.0 | 0.00 | 0.00 | 0.00 | 37 | 1024.1 |
| 20260503173017 | 79 | 194 | 5.0 | 8.0 | 0.00 | 0.00 | 0.00 | 36 | 1024.1 |
| 20260503172516 | 79 | 144 | 4.0 | 9.0 | 0.00 | 0.00 | 0.00 | 40 | 1024.1 |
| 20260503172012 | 78 | 235 | 2.0 | 3.0 | 0.00 | 0.00 | 0.00 | 40 | 1024.1 |
| 20260503171509 | 78 | 183 | 7.0 | 8.0 | 0.00 | 0.00 | 0.00 | 37 | 1024.4 |
| 20260503171006 | 78 | 165 | 3.0 | 5.0 | 0.00 | 0.00 | 0.00 | 39 | 1024.4 |
| 20260503170502 | 79 | 158 | 3.0 | 5.0 | 0.00 | 0.00 | 0.00 | 38 | 1024.4 |
| 20260503150855 | 73 | 192 | 1.0 | 1.0 | 0.00 | 0.00 | 0.00 | 57 | 1024.7 |
| 20260503150351 | 72 | 229 | 1.0 | 1.0 | 0.00 | 0.00 | 0.00 | 57 | 1024.7 |
| 20260503140315 | 68 | 290 | 1.0 | 1.0 | 0.00 | 0.00 | 0.00 | 65 | 1024.4 |
| 20260503131244 | 57 | 301 | 1.0 | 1.0 | 0.00 | 0.00 | 0.00 | 96 | 1024.1 |
| 20260503130742 | 56 | 303 | 1.0 | 1.0 | 0.00 | 0.00 | 0.00 | 96 | 1024.4 |
| 20260503130239 | 55 | 276 | 0.0 | 0.0 | 0.00 | 0.00 | 0.00 | 97 | 1024.4 |
| 20260503120205 | 50 | 256 | 0.0 | 0.0 | 0.00 | 0.00 | 0.00 | 97 | 1024.1 |
| 20260503110633 | 51 | 259 | 0.0 | 0.0 | 0.00 | 0.00 | 0.00 | 96 | 1023.4 |
| 20260503110130 | 51 | 250 | 0.0 | 0.0 | 0.00 | 0.00 | 0.00 | 96 | 1023.4 |
| 20260503081446 | 53 | 263 | 0.0 | 0.0 | 0.00 | 0.00 | 0.00 | 94 | 1023.1 |
| 20260503080943 | 53 | 262 | 0.0 | 0.0 | 0.00 | 0.00 | 0.00 | 93 | 1022.7 |
| 20260503080439 | 53 | 261 | 0.0 | 0.0 | 0.00 | 0.00 | 0.00 | 93 | 1023.1 |
| 20260503072916 | 54 | 261 | 0.0 | 0.0 | 0.00 | 0.00 | 0.00 | 92 | 1023.1 |
| 20260503072413 | 54 | 257 | 0.0 | 0.0 | 0.00 | 0.00 | 0.00 | 92 | 1023.4 |
| 20260503071910 | 54 | 248 | 0.0 | 0.0 | 0.00 | 0.00 | 0.00 | 92 | 1023.1 |
| 20260503071407 | 54 | 254 | 0.0 | 0.0 | 0.00 | 0.00 | 0.00 | 92 | 1023.4 |
| 20260503070903 | 54 | 256 | 0.0 | 0.0 | 0.00 | 0.00 | 0.00 | 91 | 1023.1 |
| 20260503070400 | 54 | 256 | 0.0 | 0.0 | 0.00 | 0.00 | 0.00 | 90 | 1023.4 |
| 20260503060326 | 56 | 269 | 0.0 | 0.0 | 0.00 | 0.00 | 0.00 | 88 | 1023.4 |
| 20260503054814 | 56 | 270 | 0.0 | 0.0 | 0.00 | 0.00 | 0.00 | 87 | 1023.4 |
| 20260503054310 | 56 | 270 | 0.0 | 0.0 | 0.00 | 0.00 | 0.00 | 87 | 1023.4 |
| 20260503053808 | 56 | 270 | 0.0 | 0.0 | 0.00 | 0.00 | 0.00 | 87 | 1023.4 |
| 20260503053306 | 56 | 270 | 0.0 | 0.0 | 0.00 | 0.00 | 0.00 | 87 | 1023.4 |
| 20260503052802 | 56 | 270 | 0.0 | 0.0 | 0.00 | 0.00 | 0.00 | 87 | 1023.4 |
| 20260503052259 | 56 | 270 | 0.0 | 0.0 | 0.00 | 0.00 | 0.00 | 87 | 1023.4 |
| 20260503051755 | 56 | 271 | 0.0 | 0.0 | 0.00 | 0.00 | 0.00 | 87 | 1023.4 |
| 20260503051252 | 56 | 266 | 0.0 | 0.0 | 0.00 | 0.00 | 0.00 | 87 | 1023.4 |
| 20260503050748 | 57 | 266 | 0.0 | 0.0 | 0.00 | 0.00 | 0.00 | 87 | 1023.1 |
| 20260503050245 | 56 | 264 | 0.0 | 0.0 | 0.00 | 0.00 | 0.00 | 86 | 1023.4 |
| 20260503045742 | 56 | 264 | 0.0 | 0.0 | 0.00 | 0.00 | 0.00 | 86 | 1023.4 |
| 20260503045240 | 57 | 265 | 0.0 | 0.0 | 0.00 | 0.00 | 0.00 | 85 | 1023.4 |
| 20260503044736 | 57 | 265 | 0.0 | 0.0 | 0.00 | 0.00 | 0.00 | 84 | 1023.4 |
| 20260503044233 | 57 | 260 | 0.0 | 0.0 | 0.00 | 0.00 | 0.00 | 83 | 1023.4 |
| 20260503043730 | 58 | 258 | 0.0 | 0.0 | 0.00 | 0.00 | 0.00 | 82 | 1023.4 |
| 20260503043227 | 58 | 243 | 0.0 | 0.0 | 0.00 | 0.00 | 0.00 | 81 | 1023.4 |
| 20260503042723 | 58 | 265 | 0.0 | 0.0 | 0.00 | 0.00 | 0.00 | 81 | 1023.4 |
| 20260503042220 | 59 | 266 | 0.0 | 0.0 | 0.00 | 0.00 | 0.00 | 82 | 1023.1 |
| 20260503041716 | 59 | 266 | 0.0 | 0.0 | 0.00 | 0.00 | 0.00 | 82 | 1023.1 |
| 20260503041214 | 59 | 265 | 0.0 | 0.0 | 0.00 | 0.00 | 0.00 | 82 | 1023.1 |